Regional Weather Roundup
Issued by NWS

Home | Current Version | Previous Version | Graphics & Text | Print | Product List | Glossary On
Versions: 1 2 3 4 5 6 7 8 9 10 11 12 13 14 15 16 17 18 19 20 21 22 23 24 25 26 27 28 29 30 31 32 33 34 35 36 37 38 39 40 41 42 43 44 45 46 47 48 49 50
000
ASUS44 KMEG 102300
RWRTN
TENNESSEE HOURLY STATE WEATHER ROUNDUP
NATIONAL WEATHER SERVICE MEMPHIS TN
500 PM CST WED FEB 10 2016

TNZ002-004-019-021-049-052-054-088>092-110000-
WEST TENNESSEE

CITY           SKY/WX    TMP DP  RH WIND       PRES   REMARKS
MEMPHIS INTL   PTCLDY    41  16  36 S9        30.14S
NWS MEMPHIS      N/A     41 N/A N/A MISG        N/A
JACKSON        CLOUDY    32   9  38 SW5       30.16F WCI  27
DYERSBURG      CLEAR     32   9  37 SE3       30.18F
PARIS          CLOUDY    23  16  74 CALM      30.17R
$$

TNZ008-025-027-028-033-062-065-066-110000-
NORTH MIDDLE TENNESSEE

CITY           SKY/WX    TMP DP  RH WIND       PRES   REMARKS
NASHVILLE      LGT SNOW  29  12  49 W8        30.16R WCI  21
CLARKSVILLE    LGT SNOW  24  18  77 W10       30.17R WCI  14
CROSSVILLE     CLOUDY    22   8  55 W16G22    30.05S WCI   8
$$

TNZ061-075-076-078-094-096-097-110000-
SOUTH MIDDLE TENNESSEE

CITY           SKY/WX    TMP DP  RH WIND       PRES   REMARKS
TULLAHOMA      MOCLDY    28  10  47 W12       30.13R WCI  18
WINCHESTER     CLOUDY    28   9  43 W10       30.13S WCI  19
$$

TNZ017-018-042-046-047-110000-
NORTHEAST TENNESSEE

CITY           SKY/WX    TMP DP  RH WIND       PRES   REMARKS
TRI CITIES     MOCLDY    23   6  48 W10       29.99R WCI  12
$$

TNZ012-013-036-069-073-074-110000-
CENTRAL EAST TENNESSEE

CITY           SKY/WX    TMP DP  RH WIND       PRES   REMARKS
KNOXVILLE      NOT AVBL
OAK RIDGE      PTCLDY    29   3  33 W8        30.09R WCI  21
GATLINBURG     CLEAR     25   3  39 W10       30.07R WCI  15
$$

TNZ083-085-099-110000-
SOUTHEAST TENNESSEE

CITY           SKY/WX    TMP DP  RH WIND       PRES   REMARKS
CHATTANOOGA    CLOUDY    33   6  32 W8        30.13S WCI  26
$$

SKY/WX REPORTED AS FAIR MEANS FEW OR NO CLOUDS BELOW
12 THOUSAND FEET.




USA.gov is the U.S. government's official web portal to all federal, state and local government web resources and services.